Regional Weather Roundup
Issued by NWS Newport/Morehead, NC

Current Version | Previous Version | Text Only | Print | Product List | Glossary On
Versions: 1 2 3 4 5 6 7 8 9 10 11 12 13 14 15 16 17 18 19 20 21 22 23 24 25 26 27 28 29 30 31 32 33 34 35 36 37 38 39 40 41 42 43 44 45 46 47 48 49 50
000
ASUS42 KMHX 182225
RWRMHX
WEATHER ROUNDUP FOR EASTERN NORTH CAROLINA
NATIONAL WEATHER SERVICE NEWPORT/MOREHEAD CITY NC
600 PM EDT WED OCT 18 2017

NOTE: "FAIR" INDICATES FEW OR NO CLOUDS BELOW 12,000 FEET
WITH NO SIGNIFICANT WEATHER AND/OR OBSTRUCTIONS TO VISIBILITY

NCZ015>017-031-032-045>047-102-103-182300-
NORTH COAST

CITY           SKY/WX    TMP DP  RH WIND       PRES   REMARKS
EDENTON        CLEAR     65  56  73 CALM      30.32S
ELIZABETH CITY CLEAR     64  54  69 E8        30.32S
KITTY HAWK     CLEAR     64  53  69 CALM      30.30S
MANTEO         CLEAR    N/A N/A N/A NE8       30.31S

$$

NCZ045>047-081-094-103-104-182300-
CENTRAL COAST

CITY           SKY/WX    TMP DP  RH WIND       PRES   REMARKS
FRISCO         CLEAR     68  59  73 NE8G18    30.28S

$$

NCZ095-097-098-100-101-182300-
SOUTHERN COAST

CITY           SKY/WX    TMP DP  RH WIND       PRES   REMARKS
BEAUFORT       CLEAR     67  56  67 NE7       30.28R
CEDAR ISLAND   NOT AVBL
JACKSONVILLE   CLEAR     70  55  59 NE8       30.28R
PINEY ISLAND     N/A    N/A N/A N/A NE13      30.28S
WILMINGTON     CLEAR     71  54  54 NE8       30.27R


$$

NCZ011>013-027>030-043-044-078>080-089-090>093-098-182300-
COASTAL PLAIN

CITY           SKY/WX    TMP DP  RH WIND       PRES   REMARKS
AHOSKIE        CLEAR     63  50  62 CALM      30.31F
CLINTON        CLEAR     68  48  48 N3        30.30S
ELIZABETHTOWN  NOT AVBL
GOLDSBORO      CLEAR     68  48  49 NE6       30.28S
GREENVILLE     CLEAR     68  54  60 NE3       30.30S
HAVELOCK       NOT AVBL
KENANSVILLE    CLEAR     66  46  48 CALM      30.29S
KINSTON        CLEAR     70  48  46 NE5       30.30S
NEW BERN       CLEAR     69  56  62 E6        30.30R
RICHLANDS      CLEAR     67  50  54 N3        30.29S
ROCKY MOUNT    CLEAR     64  53  67 CALM      30.31S
WASHINGTON     CLEAR     66  55  67 NE5       30.30S
WHITEVILLE     CLEAR     68  54  61 CALM      30.27R

$$

AMZ130-135-150-152-154-156-158-170-250-252-270-ANZ085-086-088-633-658-670-182300-
MARINE OBSERVATIONS

STATION/POSITION TIME  TEMP    WIND        PRES    WAVE   SWELL
                       AIR SEA DIR/SP/G            HT/PER HT/PER
                 (UTC) (F)     (DEG/KT/KT) (MB)    (FT/S) (FT/S)
CHESAPEAKE LIGHT NOT AVBL
64 E VA BEACH    2150   65 68   50/  8/ 10 1027.0    4/10   3/10
DUCK             2200   65 68   50/ 10/ 12 1026.1
2 E DUCK         2200      70                N/A     4/ 8   2/11
OREGON INLET     2200   66 65   40/ 10/ 14 1025.9
13E OREGON INLT  2148      71                N/A     5/ 8   5/ 8
HATTERAS CG      2200   67 68   40/ 11/ 14 1025.2
DIAMOND BUOY     2150   72 82   30/ 17/ 21 1024.1    6/10   3/10
CAPE LOOKOUT     2200   66      20/ 16/ 19 1024.8
BEAUFORT LAB     2200   67 69   30/  6/ 11 1025.5
30 SE NEW RVR IN 2208   70      40/ 17/ 23 1024.0
30 SE NEW RVR IN NOT AVBL
27 SE WRIGHTSVLE 2208   71 77   70/ 17/ 23 1024.1
5 SE WRIGHTSVLE  2208   71 74   50/ 14/ 21 1024.6
225 S CAPE HAT   2150   76 80   60/ 23/ 31 1019.7   10/ 8
41 SE CHARLESTON 2200   73 80   40/ 19/ 23 1022.6

$$




USA.gov is the U.S. government's official web portal to all federal, state and local government web resources and services.